KUIPER-00589

导读

KUIPER-00589(NORAD 69767)是美国亚马逊公司低轨宽带卫星互联网项目(原柯伊伯计划)的组网卫星之一,于2026年7月2日随联合发射联盟“宇宙神5”火箭在佛罗里达州卡纳维拉尔角发射入轨,属于该项目2026年第三次批量发射的29颗卫星成员。该星运行于近地轨道,采用Ka/Ku双频段相控阵设计,单星重约330公斤,设计寿命7年,当前处于在轨部署测试阶段,将为北美、南美及大西洋区域提供低延迟宽带服务支撑,助力星座规模化组网进程。

Basic Information
目录编号:
69767
目录名称:
KUIPER-00589
国际标识:
2026-151E
轨道中心:
EARTH
卫星名称:
KUIPER-00589
卫星全名:
KUIPER-00589
卫星状态:
在轨 (已飞行72 天)
发射日期:
2026-07-02 UTC
国别 :
美国 (US)
星等 :
--
This satellite is enrolled in the Space Conjunction Data Service (SCDS) and the current flight risk assessment level is: No High Risk
Orbit Information
数据来源 国际轨道数据 AOE轨道数据
星历时间 2026-09-11T16:41:10+0800
20小时前
查看轨道信息
2026-09-10T07:00:00+0800
2天前
查看轨道信息
半长轴 7018.464km 7018.487km
偏心率 0.0002468 0.0002709
轨道倾角 51.902° 51.899°
近地点辐角 43.476° 39.486°
升交点赤经 274.947° 281.121°
平近点角 316.640° 55.370°
近地点 638.594km 638.448km
远地点 642.06km 642.252km
周期 97.527分钟 97.527分钟
每日圈数 14.765212 14.76514
Detailed Information
使用方式:
暂无
2D Orbit Map
3D Orbit Map
Orbit Altitude Analysis Chart
Orbit Inclination Analysis Chart
Orbit Comprehensive Analysis Chart
View Comprehensive Chart
Conjunction Data List
Event ID Objects TCA Miss Dist (km) Collision Risk Probability Collision Risk Index (CRI) Action
CDM_260911-001003-637106-976723
2026-09-11T
00:10:11+0000
2.420 km
极远距离
1.324748E-6 低风险 0.37
Miss Distance Evolution Trend with All Objects
Collision Probability Evolution Trend with All Objects